�������l�o���
Date,Time,MP-1(��Sv/h),MP-2(��Sv/h),MP-3(��Sv/h),MP-4(��Sv/h),MP-5(��Sv/h),MP-6(��Sv/h),MP-7(��Sv/h),MP-8(��Sv/h),����,����(m/s),���J
2016/10/06,00:00,1.159,1.922,1.372,2.104,1.480,0.611,1.077,0.989,��,12.7,��
2016/10/06,00:10,1.158,1.921,1.371,2.103,1.482,0.609,1.076,0.990,��,9.6,��
2016/10/06,00:20,1.160,1.922,1.372,2.104,1.483,0.609,1.074,0.991,��,9.1,��
2016/10/06,00:30,1.159,1.919,1.373,2.104,1.483,0.609,1.075,0.991,��쐼,10.7,��
2016/10/06,00:40,1.161,1.919,1.373,2.105,1.479,0.609,1.076,0.990,��,9.6,��
2016/10/06,00:50,1.159,1.922,1.371,2.102,1.482,0.611,1.075,0.990,��,7.8,��
2016/10/06,01:00,1.158,1.920,1.371,2.106,1.483,0.610,1.077,0.991,��,9.9,��
2016/10/06,01:10,1.161,1.921,1.371,2.108,1.480,0.610,1.078,0.990,��,9.1,��
2016/10/06,01:20,1.158,1.911,1.362,2.101,1.472,0.608,1.074,0.988,��쓌,7.7,�L
2016/10/06,01:30,1.126,1.842,1.331,2.050,1.424,0.600,1.058,0.976,��,4.2,�L
2016/10/06,01:40,1.130,1.856,1.339,2.047,1.429,0.601,1.059,0.975,���쐼,2.7,�L
2016/10/06,01:50,1.132,1.857,1.338,2.051,1.435,0.600,1.059,0.978,��쐼,2.5,��
2016/10/06,02:00,1.131,1.858,1.338,2.049,1.431,0.601,1.060,0.978,��쓌,4.4,��
2016/10/06,02:10,1.130,1.860,1.336,2.049,1.432,0.602,1.061,0.978,��,4.1,��
2016/10/06,02:20,1.133,1.862,1.340,2.050,1.434,0.601,1.059,0.976,��쐼,5.2,��
2016/10/06,02:30,1.131,1.862,1.337,2.050,1.436,0.600,1.060,0.978,��쐼,5.8,��
2016/10/06,02:40,1.133,1.863,1.338,2.051,1.436,0.601,1.059,0.977,�쐼,5.8,��
2016/10/06,02:50,1.133,1.861,1.339,2.050,1.433,0.602,1.061,0.978,���쐼,8.6,��
2016/10/06,03:00,1.133,1.865,1.343,2.053,1.434,0.601,1.063,0.978,���쐼,11.8,��
2016/10/06,03:10,1.135,1.864,1.345,2.053,1.436,0.603,1.065,0.979,���쐼,12.3,��
2016/10/06,03:20,1.134,1.865,1.345,2.058,1.440,0.602,1.062,0.979,��,11.3,��
2016/10/06,03:30,1.137,1.866,1.348,2.058,1.442,0.601,1.063,0.981,��,11.5,��
2016/10/06,03:40,1.137,1.866,1.344,2.062,1.440,0.603,1.063,0.980,��,11.6,��
2016/10/06,03:50,1.136,1.868,1.343,2.060,1.443,0.603,1.063,0.979,���k��,7.5,��
2016/10/06,04:00,1.134,1.871,1.344,2.061,1.441,0.603,1.063,0.981,���k��,7.1,��
2016/10/06,04:10,1.134,1.869,1.346,2.063,1.445,0.602,1.063,0.978,���k��,9.4,��
2016/10/06,04:20,1.137,1.872,1.346,2.061,1.442,0.602,1.064,0.980,���k��,9.4,��
2016/10/06,04:30,1.136,1.874,1.347,2.065,1.444,0.602,1.064,0.982,���k��,8.0,��
2016/10/06,04:40,1.136,1.870,1.346,2.062,1.445,0.604,1.062,0.981,���k��,6.3,��
2016/10/06,04:50,1.138,1.872,1.346,2.062,1.444,0.602,1.064,0.980,��,3.8,��
2016/10/06,05:00,1.138,1.871,1.345,2.064,1.446,0.601,1.062,0.982,���k��,5.2,��
2016/10/06,05:10,1.140,1.872,1.344,2.062,1.445,0.603,1.065,0.982,�k��,8.0,��
2016/10/06,05:20,1.139,1.874,1.345,2.066,1.447,0.604,1.063,0.982,�k��,5.2,��
2016/10/06,05:30,1.139,1.871,1.345,2.063,1.445,0.601,1.065,0.981,�k��,6.3,��
2016/10/06,05:40,1.139,1.873,1.344,2.061,1.447,0.603,1.066,0.981,���k��,3.9,��
2016/10/06,05:50,1.137,1.871,1.348,2.065,1.443,0.603,1.065,0.980,��쓌,3.3,��
2016/10/06,06:00,1.137,1.872,1.347,2.063,1.444,0.602,1.064,0.981,��쓌,1.6,��
2016/10/06,06:10,1.137,1.873,1.347,2.062,1.446,0.601,1.068,0.981,��쓌,0.6,��
2016/10/06,06:20,1.139,1.871,1.348,2.064,1.446,0.603,1.066,0.981,��,1.7,��
2016/10/06,06:30,1.139,1.873,1.347,2.065,1.448,0.601,1.067,0.983,���k��,2.3,��
2016/10/06,06:40,1.140,1.874,1.346,2.066,1.448,0.604,1.067,0.980,�k�k��,2.6,��
2016/10/06,06:50,1.141,1.868,1.350,2.065,1.444,0.602,1.065,0.981,���k��,2.6,��
2016/10/06,07:00,1.137,1.875,1.347,2.065,1.443,0.601,1.067,0.981,���k��,3.5,��
2016/10/06,07:10,1.137,1.874,1.349,2.064,1.445,0.601,1.067,0.980,���k��,3.4,��
2016/10/06,07:20,1.139,1.875,1.340,2.066,1.446,0.599,1.064,0.983,���k��,2.5,��
2016/10/06,07:30,1.138,1.876,1.343,2.064,1.446,0.601,1.066,0.981,�k��,2.3,��
2016/10/06,07:40,1.136,1.875,1.344,2.066,1.445,0.601,1.067,0.981,�k�k��,4.4,��
2016/10/06,07:50,1.138,1.875,1.340,2.069,1.447,0.602,1.065,0.980,�k,5.2,��
2016/10/06,08:00,1.140,1.873,1.345,2.067,1.446,0.600,1.067,0.983,�k�k��,6.9,��
2016/10/06,08:10,1.141,1.869,1.345,2.064,1.448,0.602,1.066,0.982,�k�k��,8.2,��
2016/10/06,08:20,1.141,1.878,1.348,2.068,1.449,0.594,1.065,0.982,�k�k��,7.7,��
2016/10/06,08:30,1.140,1.870,1.346,2.071,1.450,0.600,1.064,0.982,�k��,8.3,��
2016/10/06,08:40,1.140,1.872,1.345,2.070,1.448,0.599,1.065,0.983,�k��,8.2,��
2016/10/06,08:50,1.138,1.871,1.345,2.068,1.444,0.596,1.065,0.981,�k��,7.1,��
2016/10/06,09:00,1.139,1.880,1.346,2.069,1.444,0.599,1.065,0.981,�k��,6.6,��
2016/10/06,09:10,1.140,1.878,1.348,2.069,1.447,0.598,1.068,0.979,�k��,6.9,��
2016/10/06,09:20,1.142,1.879,1.348,2.071,1.445,0.599,1.065,0.981,�k�k��,6.9,��
2016/10/06,09:30,1.141,1.881,1.347,2.072,1.451,0.599,1.066,0.980,�k��,9.4,��
2016/10/06,09:40,1.139,1.880,1.347,2.073,1.449,0.600,1.066,0.981,�k��,7.1,��
2016/10/06,09:50,1.144,1.877,1.351,2.071,1.450,0.599,1.065,0.980,�k��,6.4,��
2016/10/06,10:00,1.141,1.881,1.349,2.072,1.450,0.599,1.066,0.983,�k��,5.8,��
2016/10/06,10:10,1.143,1.880,1.350,2.072,1.452,0.601,1.067,0.982,�k��,4.9,��
2016/10/06,10:20,1.143,1.876,1.348,2.076,1.453,0.600,1.067,0.981,�k��,6.7,��
2016/10/06,10:30,1.143,1.874,1.352,2.077,1.451,0.599,1.066,0.981,�k��,5.0,��
2016/10/06,10:40,1.145,1.873,1.352,2.077,1.452,0.599,1.067,0.983,�k�k��,7.7,��
2016/10/06,10:50,1.144,1.870,1.352,2.077,1.455,0.599,1.065,0.982,�k��,7.4,��
2016/10/06,11:00,1.145,1.880,1.353,2.077,1.453,0.599,1.067,0.981,�k�k��,8.6,��
2016/10/06,11:10,1.146,1.880,1.348,2.075,1.455,0.598,1.068,0.981,�k��,8.2,��
2016/10/06,11:20,1.146,1.876,1.353,2.077,1.451,0.599,1.068,0.982,�k��,6.0,��
2016/10/06,11:30,1.145,1.879,1.352,2.078,1.454,0.598,1.067,0.981,�k��,6.6,��
2016/10/06,11:40,1.144,1.875,1.355,2.077,1.457,0.599,1.067,0.981,�k��,5.8,��
2016/10/06,11:50,1.147,1.876,1.355,2.079,1.456,0.599,1.069,0.983,�k�k��,5.5,��
2016/10/06,12:00,1.148,1.893,1.355,2.077,1.457,0.597,1.067,0.981,�k�k��,6.0,��
2016/10/06,12:10,1.146,1.891,1.355,2.078,1.458,0.598,1.066,0.981,�k��,5.3,��
2016/10/06,12:20,1.145,1.894,1.354,2.082,1.459,0.598,1.068,0.980,�k�k��,5.3,��
2016/10/06,12:30,1.138,1.895,1.355,2.078,1.460,0.599,1.069,0.981,�k�k��,4.7,��
2016/10/06,12:40,1.146,1.892,1.356,2.081,1.458,0.599,1.069,0.982,�k�k��,5.2,��
2016/10/06,12:50,1.147,1.883,1.356,2.078,1.460,0.599,1.069,0.981,�k,4.4,��
2016/10/06,13:00,1.145,1.883,1.356,2.083,1.457,0.599,1.069,0.981,�k,4.1,��
2016/10/06,13:10,1.147,1.887,1.357,2.082,1.459,0.597,1.068,0.983,�k,3.6,��
2016/10/06,13:20,1.149,1.896,1.353,2.082,1.461,0.599,1.068,0.982,�k�k��,5.5,��
2016/10/06,13:30,1.147,1.893,1.352,2.082,1.463,0.600,1.067,0.982,�k�k��,5.2,��
2016/10/06,13:40,1.144,1.889,1.354,2.078,1.457,0.598,1.068,0.983,�k�k��,5.8,��
2016/10/06,13:50,1.145,1.894,1.352,2.083,1.461,0.600,1.068,0.983,�k��,5.2,��
2016/10/06,14:00,1.146,1.892,1.355,2.080,1.460,0.600,1.069,0.982,�k��,5.5,��
2016/10/06,14:10,1.148,1.898,1.356,2.085,1.461,0.600,1.070,0.981,�k��,6.1,��
2016/10/06,14:20,1.146,1.896,1.356,2.085,1.462,0.599,1.069,0.982,�k��,4.9,��
2016/10/06,14:30,1.147,1.900,1.355,2.080,1.460,0.599,1.068,0.984,�k��,5.3,��
2016/10/06,14:40,1.145,1.895,1.359,2.083,1.462,0.598,1.069,0.980,�k��,4.4,��
2016/10/06,14:50,1.148,1.896,1.358,2.084,1.459,0.598,1.071,0.983,�k��,3.8,��
2016/10/06,15:00,1.146,1.898,1.358,2.085,1.463,0.596,1.069,0.982,���k��,2.7,��
2016/10/06,15:10,1.145,1.894,1.359,2.086,1.463,0.599,1.068,0.982,�k��,2.0,��
2016/10/06,15:20,1.147,1.894,1.359,2.085,1.462,0.599,1.069,0.981,�k,2.4,��
2016/10/06,15:30,1.149,1.896,1.358,2.088,1.462,0.602,1.069,0.982,�k,1.4,��
2016/10/06,15:40,1.146,1.899,1.359,2.084,1.467,0.601,1.068,0.982,�k�k��,3.4,��
2016/10/06,15:50,1.149,1.900,1.361,2.085,1.467,0.602,1.068,0.981,�k��,2.6,��
2016/10/06,16:00,1.148,1.901,1.360,2.085,1.466,0.602,1.068,0.985,�k�k��,5.5,��
2016/10/06,16:10,1.149,1.897,1.361,2.086,1.467,0.602,1.070,0.985,�k�k��,5.2,��
2016/10/06,16:20,1.149,1.903,1.360,2.087,1.468,0.603,1.069,0.982,�k��,6.1,��
2016/10/06,16:30,1.148,1.902,1.356,2.087,1.466,0.601,1.068,0.984,�k��,6.6,��
2016/10/06,16:40,1.150,1.900,1.359,2.086,1.465,0.601,1.067,0.984,�k��,6.9,��
2016/10/06,16:50,1.146,1.904,1.355,2.086,1.463,0.600,1.067,0.983,�k��,7.5,��
2016/10/06,17:00,1.145,1.904,1.356,2.086,1.464,0.602,1.067,0.986,�k��,6.6,��
2016/10/06,17:10,1.146,1.903,1.358,2.086,1.462,0.603,1.068,0.983,�k��,6.3,��
2016/10/06,17:20,1.148,1.907,1.357,2.087,1.462,0.602,1.068,0.986,�k��,6.9,��
2016/10/06,17:30,1.145,1.905,1.358,2.087,1.467,0.602,1.069,0.985,�k��,5.6,��
2016/10/06,17:40,1.147,1.904,1.358,2.085,1.467,0.601,1.067,0.986,�k��,6.9,��
2016/10/06,17:50,1.147,1.904,1.361,2.086,1.469,0.603,1.069,0.985,�k�k��,6.7,��
2016/10/06,18:00,1.146,1.905,1.359,2.086,1.470,0.602,1.070,0.985,�k�k��,5.8,��
2016/10/06,18:10,1.147,1.905,1.362,2.089,1.469,0.600,1.070,0.984,�k��,6.6,��
2016/10/06,18:20,1.144,1.905,1.361,2.086,1.467,0.601,1.068,0.985,�k��,6.3,��
2016/10/06,18:30,1.146,1.905,1.360,2.082,1.468,0.603,1.071,0.984,�k��,8.0,��
2016/10/06,18:40,1.145,1.904,1.361,2.087,1.466,0.602,1.069,0.984,�k��,7.4,��
2016/10/06,18:50,1.146,1.903,1.360,2.090,1.467,0.603,1.069,0.985,�k��,7.2,��
2016/10/06,19:00,1.145,1.903,1.361,2.087,1.468,0.602,1.068,0.986,�k�k��,6.3,��
2016/10/06,19:10,1.148,1.905,1.360,2.087,1.468,0.601,1.070,0.985,�k�k��,6.6,��
2016/10/06,19:20,1.146,1.907,1.361,2.086,1.469,0.602,1.071,0.985,�k�k��,6.0,��
2016/10/06,19:30,1.147,1.902,1.360,2.085,1.467,0.601,1.070,0.983,�k��,5.0,��
2016/10/06,19:40,1.146,1.902,1.360,2.085,1.469,0.601,1.068,0.984,�k��,4.2,��
2016/10/06,19:50,1.146,1.904,1.363,2.086,1.468,0.601,1.071,0.986,�k��,5.2,��
2016/10/06,20:00,1.147,1.903,1.360,2.085,1.468,0.600,1.070,0.984,�k�k��,5.5,��
2016/10/06,20:10,1.146,1.900,1.359,2.082,1.464,0.601,1.069,0.983,�k�k��,6.6,��
2016/10/06,20:20,1.148,1.904,1.360,2.089,1.467,0.600,1.070,0.986,�k�k��,6.7,��
2016/10/06,20:30,1.148,1.903,1.362,2.087,1.465,0.601,1.070,0.983,�k�k��,6.4,��
2016/10/06,20:40,1.145,1.904,1.358,2.083,1.465,0.601,1.069,0.987,�k�k��,6.0,��
2016/10/06,20:50,1.145,1.900,1.357,2.085,1.464,0.599,1.070,0.985,�k�k��,5.2,��
2016/10/06,21:00,1.146,1.902,1.359,2.087,1.465,0.600,1.068,0.985,�k�k��,5.0,��
2016/10/06,21:10,1.147,1.901,1.359,2.084,1.464,0.600,1.068,0.984,�k��,4.6,��
2016/10/06,21:20,1.146,1.901,1.358,2.085,1.464,0.599,1.071,0.986,�k�k��,4.1,��
2016/10/06,21:30,1.149,1.902,1.361,2.083,1.467,0.599,1.070,0.985,�k�k��,5.2,��
2016/10/06,21:40,1.146,1.904,1.357,2.087,1.467,0.601,1.068,0.985,�k�k��,4.7,��
2016/10/06,21:50,1.148,1.905,1.357,2.085,1.464,0.601,1.069,0.984,�k�k��,3.6,��
2016/10/06,22:00,1.144,1.902,1.356,2.084,1.468,0.601,1.067,0.984,�k,3.4,��
2016/10/06,22:10,1.147,1.902,1.355,2.087,1.466,0.599,1.068,0.984,�k,3.8,��
2016/10/06,22:20,1.146,1.902,1.356,2.086,1.467,0.601,1.068,0.984,�k,3.9,��
2016/10/06,22:30,1.144,1.902,1.357,2.085,1.463,0.601,1.069,0.984,�k�k��,5.5,��
2016/10/06,22:40,1.143,1.903,1.358,2.084,1.464,0.599,1.066,0.983,�k�k��,6.3,��
2016/10/06,22:50,1.146,1.900,1.359,2.085,1.466,0.600,1.070,0.983,�k�k��,5.5,��
2016/10/06,23:00,1.144,1.902,1.359,2.087,1.464,0.601,1.066,0.982,�k�k��,4.6,��
2016/10/06,23:10,1.146,1.901,1.359,2.085,1.466,0.602,1.068,0.982,�k�k��,3.8,��
2016/10/06,23:20,1.144,1.903,1.359,2.086,1.465,0.600,1.069,0.984,�k�k��,4.5,��
2016/10/06,23:30,1.142,1.902,1.357,2.086,1.466,0.600,1.067,0.983,�k�k��,5.2,��
2016/10/06,23:40,1.143,1.903,1.357,2.085,1.466,0.599,1.068,0.983,�k�k��,5.8,��
2016/10/06,23:50,1.144,1.900,1.357,2.085,1.469,0.598,1.067,0.984,�k�k��,5.5,��
